WB3IGR Weather Reports


time (UTC)temp
C
wind
direction
speed
KPH
gust
KPH
rain 1hr
cm
rain 24hr
cm
rain mn
cm
humidity
%
barometer
mb
20260506231658 17 309 4.8 6.4 0.30 0.76 0.76 98 1009.8
20260506231157 17 282 3.2 6.4 0.30 0.71 0.71 97 1009.5
20260506230653 17 268 4.8 11.3 0.30 0.71 0.71 96 1009.7
20260506230150 17 256 4.8 9.7 0.00 0.66 0.66 95 1009.5
20260506225646 17 10 9.7 14.5 0.00 0.66 0.66 95 1009.4
20260506225143 17 280 4.8 6.4 0.00 0.66 0.66 95 1009.4
20260506224640 17 229 8.0 14.5 0.00 0.66 0.66 95 1009.2
20260506224136 18 258 11.3 16.1 0.00 0.66 0.66 94 1009.0
20260506223633 18 257 9.7 16.1 0.00 0.66 0.66 93 1008.9
20260506223129 18 255 6.4 12.9 0.00 0.66 0.66 92 1009.1
20260506222626 18 266 9.7 11.3 0.00 0.66 0.66 91 1009.2
20260506222122 18 249 6.4 12.9 0.00 0.66 0.66 91 1009.2
20260506221620 18 283 6.4 12.9 0.00 0.66 0.66 91 1009.1
20260506221118 18 342 8.0 14.5 0.00 0.66 0.66 90 1009.1
20260506220614 18 245 8.0 9.7 0.00 0.66 0.66 90 1009.3
20260506220109 18 297 3.2 9.7 0.00 0.66 0.66 89 1009.2
20260506215606 18 188 3.2 6.4 0.00 0.66 0.66 89 1009.1
20260506215102 18 232 6.4 11.3 0.00 0.66 0.66 89 1008.9
20260506214559 19 253 8.0 12.9 0.00 0.66 0.66 89 1009.0
20260506214056 18 338 4.8 9.7 0.00 0.66 0.66 89 1008.8
20260506213554 18 282 4.8 12.9 0.00 0.66 0.66 89 1008.8
20260506213051 18 250 6.4 12.9 0.00 0.66 0.66 89 1008.9
20260506212548 18 165 6.4 12.9 0.00 0.66 0.66 89 1008.9
20260506212043 18 263 8.0 11.3 0.00 0.66 0.66 89 1008.9
20260506211539 18 242 4.8 11.3 0.00 0.66 0.66 89 1009.0
20260506211036 18 271 6.4 11.3 0.00 0.66 0.66 89 1008.9
20260506210533 19 322 4.8 11.3 0.00 0.66 0.66 89 1008.8
20260506210029 19 302 9.7 16.1 0.00 0.66 0.66 88 1008.8
20260506205526 19 226 9.7 14.5 0.00 0.66 0.66 88 1008.5
20260506205021 19 266 9.7 12.9 0.00 0.66 0.66 88 1008.6
20260506204520 19 329 8.0 16.1 0.00 0.66 0.66 88 1008.6
20260506204016 19 219 9.7 12.9 0.00 0.66 0.66 88 1008.5
20260506203515 18 291 3.2 9.7 0.00 0.66 0.66 89 1008.7
20260506203011 18 269 4.8 14.5 0.00 0.66 0.66 90 1008.7
20260506202508 18 252 4.8 9.7 0.00 0.66 0.66 91 1008.7
20260506202004 18 237 3.2 11.3 0.00 0.66 0.66 91 1008.6
20260506201503 18 2 4.8 12.9 0.00 0.66 0.66 90 1008.7
20260506200959 18 307 3.2 16.1 0.00 0.66 0.66 90 1008.8
20260506200455 18 262 11.3 14.5 0.00 0.66 0.66 90 1008.6
20260506195951 18 245 6.4 14.5 0.00 0.66 0.66 90 1008.7
20260506195449 18 330 6.4 14.5 0.00 0.66 0.66 90 1008.8
20260506194945 18 244 8.0 17.7 0.00 0.66 0.66 91 1008.8
20260506194442 18 60 6.4 17.7 0.00 0.66 0.66 90 1008.7
20260506193939 18 273 6.4 11.3 0.00 0.66 0.66 91 1008.9
20260506193436 18 277 6.4 14.5 0.00 0.66 0.66 90 1008.8
20260506192933 18 279 6.4 17.7 0.00 0.66 0.66 90 1008.7
20260506192430 18 227 9.7 17.7 0.00 0.66 0.66 90 1008.7
20260506191926 18 17 6.4 14.5 0.00 0.66 0.66 90 1008.8
20260506191423 18 263 6.4 14.5 0.00 0.66 0.66 91 1008.7
20260506190920 18 282 6.4 20.9 0.00 0.66 0.66 90 1009.0
20260506190416 18 252 6.4 20.9 0.00 0.66 0.66 91 1008.7
20260506185913 18 240 8.0 17.7 0.00 0.66 0.66 91 1009.0
20260506185410 18 303 9.7 20.9 0.00 0.66 0.66 91 1009.1
20260506184908 18 269 11.3 22.5 0.00 0.66 0.66 91 1009.0
20260506184404 18 300 9.7 14.5 0.00 0.66 0.66 92 1009.0
20260506183902 17 245 9.7 14.5 0.00 0.66 0.66 94 1009.1
20260506183356 17 263 6.4 22.5 0.00 0.66 0.66 95 1009.1
20260506182854 17 259 8.0 16.1 0.00 0.66 0.66 95 1009.1
20260506182351 17 217 14.5 20.9 0.00 0.66 0.66 96 1009.1
20260506181848 16 282 9.7 16.1 0.00 0.66 0.66 97 1009.0
20260506181346 16 263 9.7 12.9 0.00 0.66 0.66 98 1009.3
20260506180843 16 215 8.0 16.1 0.00 0.66 0.66 98 1009.5
20260506180339 16 234 14.5 22.5 0.00 0.66 0.66 97 1009.5
20260506175836 16 238 8.0 20.9 0.00 0.66 0.66 97 1009.4
20260506175333 16 179 11.3 22.5 0.00 0.66 0.66 97 1009.5
20260506174830 16 249 14.5 20.9 0.00 0.66 0.66 97 1009.4
20260506174327 16 267 14.5 17.7 0.00 0.66 0.66 97 1009.4
20260506173825 16 201 9.7 20.9 0.00 0.66 0.66 98 1009.3
20260506173321 16 174 9.7 22.5 0.00 0.66 0.66 98 1009.4
20260506172818 16 245 8.0 11.3 0.00 0.66 0.66 98 1009.2
20260506172315 16 270 12.9 17.7 0.00 0.66 0.66 98 1009.4
20260506171812 16 224 6.4 14.5 0.00 0.66 0.66 98 1009.3
20260506171309 16 268 14.5 20.9 0.00 0.66 0.66 98 1009.2
20260506170807 16 265 11.3 17.7 0.00 0.66 0.66 99 1009.1
20260506170303 16 251 6.4 20.9 0.00 0.66 0.66 99 1009.3
20260506165802 16 231 14.5 17.7 0.00 0.66 0.66 99 1009.4
20260506165259 15 206 8.0 16.1 0.00 0.66 0.66 99 1009.4
20260506164756 15 275 11.3 17.7 0.00 0.66 0.66 99 1009.5
20260506164252 15 233 9.7 20.9 0.00 0.66 0.66 99 1009.4
20260506163749 15 255 8.0 14.5 0.00 0.66 0.66 99 1009.4
20260506163244 15 269 6.4 24.1 0.00 0.66 0.66 99 1009.4
20260506162740 15 235 11.3 20.9 0.00 0.66 0.66 99 1009.6
20260506162238 15 298 3.2 12.9 0.00 0.66 0.66 99 1009.6
20260506161735 15 261 12.9 24.1 0.00 0.66 0.66 99 1009.6
20260506161233 15 253 12.9 14.5 0.00 0.66 0.66 99 1009.7
20260506160730 15 151 8.0 20.9 0.00 0.66 0.66 99 1009.6
20260506160226 15 189 6.4 11.3 0.00 0.66 0.66 99 1009.3
20260506155725 15 261 11.3 20.9 0.00 0.66 0.66 99 1009.4
20260506155222 15 228 6.4 24.1 0.00 0.66 0.66 99 1009.2
20260506153329 15 219 11.3 12.9 0.30 0.61 0.61 99 1009.4
20260506152826 15 168 3.2 12.9 0.36 0.58 0.58 99 1009.6
20260506152324 15 179 12.9 22.5 0.48 0.56 0.56 99 1009.8
20260506151822 15 279 9.7 16.1 0.43 0.53 0.53 99 1010.1
20260506151318 15 263 3.2 9.7 0.13 0.48 0.48 99 1010.1
20260506150815 15 261 9.7 14.5 0.18 0.46 0.46 99 1010.4
20260506150312 15 251 4.8 6.4 0.30 0.46 0.46 99 1010.5
20260506145809 15 251 3.2 9.7 0.13 0.43 0.43 99 1010.5
20260506145306 15 284 9.7 20.9 0.18 0.41 0.41 99 1010.5
20260506144803 15 228 9.7 17.7 0.30 0.41 0.41 99 1010.9
20260506144300 15 244 12.9 14.5 0.13 0.38 0.38 99 1010.5
20260506143758 16 196 9.7 12.9 0.18 0.36 0.36 99 1010.3
20260506143254 16 220 6.4 14.5 0.18 0.36 0.36 99 1010.1
20260506142753 16 194 3.2 12.9 0.18 0.36 0.36 99 1010.1
20260506142251 16 227 9.7 12.9 0.13 0.33 0.33 99 1010.1
20260506141749 15 283 8.0 11.3 0.13 0.33 0.33 99 1010.0
20260506141246 15 197 8.0 14.5 0.18 0.30 0.30 99 1010.3
20260506140744 15 222 6.4 9.7 0.30 0.30 0.30 99 1009.9
20260506140241 15 265 6.4 9.7 0.30 0.28 0.28 99 1010.0
20260506135738 15 199 3.2 6.4 0.36 0.25 0.25 99 1010.1
20260506135234 15 250 4.8 6.4 0.30 0.23 0.23 99 1010.4
20260506134731 15 241 9.7 14.5 0.13 0.20 0.20 98 1010.3
20260506134227 15 216 8.0 11.3 0.00 0.18 0.18 98 1010.1
20260506133724 15 237 4.8 17.7 0.00 0.18 0.18 98 1010.2
20260506133221 15 234 3.2 6.4 0.00 0.18 0.18 98 1010.3
20260506132718 15 237 4.8 14.5 0.18 0.18 0.18 98 1010.3
20260506132215 15 193 4.8 11.3 0.18 0.18 0.18 98 1010.2
20260506131713 16 285 3.2 11.3 0.00 0.15 0.15 98 1010.1
20260506131209 16 260 11.3 16.1 0.13 0.15 0.15 98 1010.3
20260506130706 15 257 6.4 9.7 0.18 0.13 0.13 97 1010.4
20260506130203 15 204 6.4 11.3 0.18 0.13 0.13 97 1010.6
20260506125701 15 244 6.4 9.7 0.00 0.10 0.10 97 1010.4
20260506125158 15 274 3.2 14.5 0.13 0.10 0.10 97 1010.7
20260506124656 16 256 12.9 16.1 0.00 0.08 0.08 96 1010.7
20260506124154 16 252 9.7 12.9 0.18 0.08 0.08 96 1010.6
20260506123651 16 272 6.4 14.5 0.18 0.08 0.08 95 1010.5
20260506123149 16 254 3.2 14.5 0.00 0.05 0.05 94 1010.7
20260506122646 16 236 9.7 14.5 0.13 0.05 0.05 94 1010.7
20260506122143 16 260 6.4 16.1 0.13 0.05 0.05 94 1010.7
20260506121641 16 255 6.4 9.7 0.00 0.03 0.03 94 1010.6
20260506121137 16 271 4.8 9.7 0.18 0.03 0.03 93 1010.7
20260506120636 16 328 4.8 11.3 0.18 0.03 0.03 92 1010.4
20260506120132 16 247 6.4 9.7 0.00 0.00 0.00 92 1010.6
20260506115631 16 244 4.8 12.9 0.00 0.00 0.00 91 1010.3
20260506115129 16 245 8.0 11.3 0.00 0.00 0.00 91 1010.2
20260506114626 16 248 8.0 11.3 0.00 0.00 0.00 90 1010.2
20260506114124 17 195 4.8 11.3 0.00 0.00 0.00 88 1010.3
20260506113622 17 228 9.7 12.9 0.00 0.00 0.00 87 1010.4
20260506113119 17 227 8.0 11.3 0.00 0.00 0.00 86 1010.4
20260506112615 17 215 9.7 12.9 0.00 0.00 0.00 85 1010.2
20260506112113 17 265 8.0 14.5 0.00 0.00 0.00 83 1010.2
20260506111610 17 244 4.8 11.3 0.00 0.00 0.00 83 1009.8
20260506111108 17 34 6.4 12.9 0.00 0.00 0.00 83 1010.1
20260506110605 17 197 8.0 14.5 0.00 0.00 0.00 82 1009.8
20260506105559 17 231 12.9 14.5 0.00 0.00 0.00 80 1009.7
20260506105056 17 222 12.9 24.1 0.00 0.00 0.00 80 1009.8
20260506104554 17 194 9.7 16.1 0.00 0.00 0.00 80 1009.7
20260506104051 17 235 8.0 16.1 0.00 0.00 0.00 80 1009.6
20260506103548 17 33 8.0 17.7 0.00 0.00 0.00 80 1009.3
20260506103045 18 198 6.4 14.5 0.00 0.00 0.00 80 1009.2
20260506102544 17 229 12.9 20.9 0.00 0.00 0.00 80 1009.4
20260506102040 17 230 14.5 22.5 0.00 0.00 0.00 80 1009.2
20260506101537 17 234 4.8 14.5 0.00 0.00 0.00 80 1009.4
20260506101034 17 359 6.4 20.9 0.00 0.00 0.00 79 1009.2
20260506100532 17 227 12.9 16.1 0.00 0.00 0.00 79 1009.3
20260506100030 17 234 8.0 14.5 0.00 0.00 0.00 79 1009.4
20260506095529 17 245 6.4 16.1 0.00 0.00 0.00 78 1009.4
20260506095025 17 252 11.3 16.1 0.00 0.00 0.00 78 1009.3
20260506094522 17 285 9.7 12.9 0.00 0.00 0.00 78 1009.5
20260506094020 18 262 6.4 14.5 0.00 0.00 0.00 78 1009.3
20260506093518 18 232 9.7 17.7 0.00 0.00 0.00 77 1009.6
20260506093016 18 187 6.4 17.7 0.00 0.00 0.00 77 1009.6
20260506092514 18 277 14.5 17.7 0.00 0.00 0.00 77 1009.5
20260506092010 18 311 1.6 11.3 0.00 0.00 0.00 77 1009.5
20260506091508 18 294 4.8 12.9 0.00 0.00 0.00 76 1009.6
20260506091004 18 203 4.8 11.3 0.00 0.00 0.00 76 1009.6
20260506090503 18 275 11.3 14.5 0.00 0.00 0.00 76 1009.4
20260506085959 18 243 4.8 12.9 0.00 0.00 0.00 76 1009.3
20260506085455 18 237 12.9 17.7 0.00 0.00 0.00 75 1009.4
20260506084952 18 306 4.8 11.3 0.00 0.00 0.00 75 1009.4
20260506084449 18 278 8.0 17.7 0.00 0.00 0.00 74 1009.6
20260506083945 18 202 6.4 20.9 0.00 0.00 0.00 74 1009.6
20260506083443 18 262 1.6 11.3 0.00 0.00 0.00 74 1009.2
20260506082940 18 185 6.4 11.3 0.00 0.00 0.00 74 1009.5
20260506082436 18 231 8.0 22.5 0.00 0.00 0.00 73 1009.4
20260506081932 18 229 8.0 12.9 0.00 0.00 0.00 73 1009.4
20260506081431 18 299 4.8 12.9 0.00 0.00 0.00 73 1009.5
20260506080928 18 270 6.4 14.5 0.00 0.00 0.00 73 1009.4
20260506080425 18 230 6.4 16.1 0.00 0.00 0.00 72 1009.6
20260506073409 18 237 6.4 12.9 0.00 0.00 0.00 69 1009.6
20260506072906 18 205 11.3 16.1 0.00 0.00 0.00 69 1009.6
20260506072403 18 184 4.8 12.9 0.00 0.00 0.00 68 1009.7
20260506071900 18 186 9.7 16.1 0.00 0.00 0.00 67 1009.7
20260506071359 19 298 6.4 14.5 0.00 0.00 0.00 67 1009.9
20260506070855 19 232 6.4 14.5 0.00 0.00 0.00 66 1009.9
20260506070352 19 234 4.8 11.3 0.00 0.00 0.00 65 1009.6
20260506062329 20 252 4.8 14.5 0.00 0.00 0.00 62 1010.3
20260506061825 20 218 11.3 17.7 0.00 0.00 0.00 61 1010.5
20260506061322 20 247 6.4 11.3 0.00 0.00 0.00 62 1010.4
20260506060820 20 242 8.0 27.4 0.00 0.00 0.00 61 1010.5
20260506060318 20 231 4.8 16.1 0.00 0.00 0.00 61 1010.6
20260506051244 20 240 6.4 16.1 0.00 0.00 0.00 59 1010.9
20260506050742 20 181 9.7 11.3 0.00 0.00 0.00 60 1010.9
20260506050239 20 256 9.7 12.9 0.00 0.00 0.00 59 1010.9
20260506044730 20 190 6.4 20.9 0.00 0.00 0.00 58 1011.1
20260506044227 20 241 4.8 14.5 0.00 0.00 0.00 58 1011.1
20260506043724 20 187 6.4 16.1 0.00 0.00 0.00 58 1010.9
20260506043222 20 215 6.4 14.5 0.00 0.00 0.00 57 1011.1
20260506042720 20 251 8.0 16.1 0.00 0.00 0.00 56 1011.0
20260506042218 20 253 9.7 14.5 0.00 0.00 0.00 56 1010.9
20260506041717 20 239 11.3 17.7 0.00 0.00 0.00 56 1010.9
20260506041213 20 261 9.7 20.9 0.00 0.00 0.00 56 1011.0
20260506040711 20 266 12.9 17.7 0.00 0.00 0.00 55 1010.9
20260506040207 20 220 14.5 17.7 0.00 0.00 0.00 55 1011.1
20260506035704 20 300 16.1 20.9 0.00 0.00 0.00 55 1011.0
20260506035201 20 279 9.7 16.1 0.00 0.00 0.00 55 1010.9
20260506034658 21 247 9.7 20.9 0.00 0.00 0.00 55 1010.8
20260506034155 21 209 9.7 16.1 0.00 0.00 0.00 55 1011.0
20260506033653 21 244 8.0 20.9 0.00 0.00 0.00 55 1010.9
20260506033149 21 234 11.3 20.9 0.00 0.00 0.00 55 1010.7
20260506032646 20 234 8.0 20.9 0.00 0.00 0.00 56 1011.0
20260506032143 21 226 9.7 16.1 0.00 0.00 0.00 55 1010.9
20260506031640 20 286 12.9 17.7 0.00 0.00 0.00 56 1010.9
20260506031137 21 234 11.3 22.5 0.00 0.00 0.00 56 1011.0
20260506030635 20 245 14.5 20.9 0.00 0.00 0.00 56 1010.8
20260506030127 20 242 8.0 17.7 0.00 0.00 0.00 57 1010.6
20260506025624 20 234 9.7 17.7 0.00 0.00 0.00 56 1010.9
20260506025119 20 224 12.9 22.5 0.00 0.00 0.00 55 1010.9
20260506024618 20 168 16.1 17.7 0.00 0.00 0.00 55 1011.1
20260506024113 20 198 11.3 17.7 0.00 0.00 0.00 55 1011.1
20260506023610 20 257 9.7 20.9 0.00 0.00 0.00 55 1010.9
20260506023107 20 241 9.7 12.9 0.00 0.00 0.00 55 1010.8
20260506022604 20 267 14.5 20.9 0.00 0.00 0.00 55 1010.9
20260506022102 21 224 6.4 17.7 0.00 0.00 0.00 54 1010.8
20260506021559 21 213 8.0 14.5 0.00 0.00 0.00 54 1010.8
20260506021056 21 219 3.2 6.4 0.00 0.00 0.00 53 1010.8
20260506020553 21 214 9.7 14.5 0.00 0.00 0.00 52 1010.8
20260506020051 21 238 11.3 16.1 0.00 0.00 0.00 51 1010.8
20260506015548 21 186 6.4 12.9 0.00 0.00 0.00 51 1010.7
20260506015045 22 208 11.3 16.1 0.00 0.00 0.00 49 1010.7
20260506014543 22 190 8.0 14.5 0.00 0.00 0.00 49 1010.9
20260506014038 22 264 8.0 16.1 0.00 0.00 0.00 49 1010.6
20260506013537 22 170 9.7 14.5 0.00 0.00 0.00 49 1010.6
20260506013033 22 241 8.0 12.9 0.00 0.00 0.00 49 1010.6
20260506012529 22 277 4.8 17.7 0.00 0.00 0.00 48 1010.6
20260506012026 22 34 6.4 20.9 0.00 0.00 0.00 48 1010.5
20260506011524 22 229 4.8 14.5 0.00 0.00 0.00 48 1010.4
20260506011019 22 249 4.8 12.9 0.00 0.00 0.00 48 1010.3
20260506010514 22 237 3.2 12.9 0.00 0.00 0.00 48 1010.2
20260506010010 22 263 6.4 16.1 0.00 0.00 0.00 48 1010.4
20260506005507 22 263 6.4 9.7 0.00 0.00 0.00 49 1010.2
20260506005002 22 213 3.2 6.4 0.00 0.00 0.00 48 1010.0
20260506004500 22 305 3.2 12.9 0.00 0.00 0.00 48 1009.9
20260506003956 23 262 6.4 12.9 0.00 0.00 0.00 47 1010.1
20260506003453 23 230 6.4 16.1 0.00 0.00 0.00 46 1009.8
20260506002949 23 261 8.0 14.5 0.00 0.00 0.00 44 1010.0
20260506002445 23 216 6.4 11.3 0.00 0.00 0.00 44 1010.0
20260506001941 23 196 8.0 14.5 0.00 0.00 0.00 46 1009.8
20260506001438 23 164 8.0 11.3 0.00 0.00 0.00 46 1009.8
20260506000935 23 225 4.8 11.3 0.00 0.00 0.00 48 1009.6
20260506000433 23 196 4.8 14.5 0.00 0.00 0.00 49 1009.9
20260505235929 23 262 8.0 12.9 0.00 0.00 0.00 47 1009.7
20260505235428 23 216 8.0 14.5 0.00 0.00 0.00 48 1009.7
20260505234924 23 147 11.3 14.5 0.00 0.00 0.00 48 1009.7
20260505234422 23 249 11.3 16.1 0.00 0.00 0.00 48 1009.6
20260505233918 23 214 8.0 14.5 0.00 0.00 0.00 48 1009.7
20260505233416 24 244 8.0 16.1 0.00 0.00 0.00 47 1009.5
20260505232913 24 219 8.0 16.1 0.00 0.00 0.00 47 1009.5
20260505232411 25 225 3.2 9.7 0.00 0.00 0.00 44 1009.4